Tracking 19226 objects as of 23-Jul-2018
HD Live streaming from Space Station
objects crossing your sky now

FENGYUN 1C DEB

Track FENGYUN 1C DEB now!
10-day predictions


NORAD ID: 30887
Int'l Code: 1999-025AXZ
Perigee: 572.8 km
Apogee: 1,014.9 km
Inclination: 98.7 °
Period: 100.6 minutes
Semi major axis: 7164 km
RCS: 0.0043 m2 (small)
Launch date: May 10, 1999
Source: People's Republic of China (PRC)
Launch site: Taiyaun Space Center, China (TSC)

Note: This is SATELLITE DEBRIS
aabbcc
Your satellite tracking list
Your tracking list is empty




NASA's NSSDC Master Catalog

Two Line Element Set (TLE):
1 30887U 99025AXZ 18203.08446842  .00000138  00000-0  43655-4 0  9990
2 30887  98.7363 243.1358 0308525  31.3500 330.5676 14.31491966594276
Source of the keplerian elements: AFSPC